Chippewa, MI

11:34 AM EDT on October 19, 2019 (GMT -0400)
Chippewa County International

Weather History for KCIU - August, 2019

Change the Weather History Date:

Thursday, August 22, 2019

  Actual Average Record
Temperature  
Mean Temperature 56 °F -  
Max Temperature 68 °F 73 °F 84 °F (1999)
Min Temperature 46 °F 49 °F 41 °F (1981)
Degree Days  
Heating Degree Days 9    
Growing Degree Days 6 (Base 50)    
Moisture  
Dew Point 48 °F    
Average Humidity 73    
Maximum Humidity 97    
Minimum Humidity 43    
Precipitation  
Precipitation 0.00 in - - ()
Sea Level Pressure  
Sea Level Pressure 30.04 in    
Wind  
Wind Speed 8 mph ()    
Max Wind Speed 17 mph    
Max Gust Speed 21 mph    
Visibility 10.0 miles    
Events      
Averages and records for this station are not official NWS values.
T = Trace of Precipitation, MM = Missing Value Source: Averaged Metar Reports

Daily Weather History Graph

Daily Weather History Graph

Search for Another Location

Airport or City:

Astronomy

Aug. 22, 2019 Rise Set
Actual Time 6:45 AM EDT 8:35 PM EDT
Civil Twilight 6:13 AM EDT 9:07 PM EDT
Nautical Twilight 5:34 AM EDT 9:46 PM EDT
Astronomical Twilight 4:50 AM EDT 10:28 PM EDT
Moon No Moon Rise 1:42 PM EDT (8/22)
Length of Visible Light 14h 53m
Length of Day
13h 49m
Waning Gibbous, 60% of the Moon is Illuminated
Aug 22
Waning Gibbous
Aug 23
Last Quarter
Aug 30
New
Sep 5
First Quarter
Sep 14
Full

Hourly Weather History & Observations

Time (EDT) Temp. Dew Point Humidity Pressure Visibility Wind Dir Wind Speed Gust Speed Precip Events Conditions
12:56 AM 50.0 °F 46.0 °F 86% 29.97 in 10.0 mi West 6.9 mph - N/A   Clear
1:56 AM 48.0 °F 46.0 °F 93% 29.97 in 10.0 mi West 8.1 mph - N/A   Clear
2:56 AM 48.0 °F 46.0 °F 93% 29.98 in 10.0 mi WSW 4.6 mph - N/A   Clear
3:56 AM 46.9 °F 46.0 °F 97% 29.99 in 10.0 mi West 5.8 mph - N/A   Clear
4:56 AM 48.9 °F 48.0 °F 97% 29.99 in 10.0 mi WNW 8.1 mph - N/A   Partly Cloudy
5:56 AM 50.0 °F 48.0 °F 93% 29.99 in 10.0 mi WNW 6.9 mph - N/A   Clear
6:56 AM 50.0 °F 48.0 °F 93% 30.00 in 10.0 mi North 4.6 mph - N/A   Scattered Clouds
7:56 AM 54.0 °F 50.0 °F 86% 30.01 in 10.0 mi North 3.5 mph - N/A   Clear
8:56 AM 57.0 °F 50.0 °F 77% 30.03 in 10.0 mi North 6.9 mph - N/A   Clear
9:56 AM 60.1 °F 48.9 °F 67% 30.04 in 10.0 mi NNW 11.5 mph - N/A   Scattered Clouds
10:03 AM 59.0 °F 48.2 °F 67% 30.04 in 10.0 mi NNW 11.5 mph - N/A   Mostly Cloudy
10:40 AM 62.6 °F 50.0 °F 63% 30.04 in 10.0 mi NNW 12.7 mph 20.7 mph N/A   Scattered Clouds
10:56 AM 62.1 °F 48.0 °F 60% 30.05 in 10.0 mi NNW 9.2 mph 17.3 mph N/A   Partly Cloudy
12:56 PM 64.0 °F 45.0 °F 50% 30.06 in 10.0 mi NW 12.7 mph 18.4 mph N/A   Clear
1:56 PM 66.0 °F 43.0 °F 43% 30.06 in 10.0 mi North 12.7 mph - N/A   Mostly Cloudy
2:56 PM 66.0 °F 46.0 °F 48% 30.07 in 10.0 mi NNW 6.9 mph 17.3 mph N/A   Partly Cloudy
3:56 PM 66.0 °F 46.0 °F 48% 30.07 in 10.0 mi North 13.8 mph - N/A   Partly Cloudy
4:56 PM 66.0 °F 48.0 °F 52% 30.06 in 10.0 mi North 16.1 mph - N/A   Clear
5:56 PM 64.0 °F 46.9 °F 54% 30.07 in 10.0 mi NNW 17.3 mph - N/A   Clear
6:56 PM 62.1 °F 48.9 °F 62% 30.08 in 10.0 mi NNW 12.7 mph - N/A   Clear
7:56 PM 60.1 °F 48.9 °F 67% 30.09 in 10.0 mi NNW 11.5 mph - N/A   Clear
8:56 PM 57.0 °F 51.1 °F 81% 30.09 in 10.0 mi NNW 11.5 mph - N/A   Clear
9:56 PM 55.9 °F 51.1 °F 84% 30.11 in 10.0 mi NNW 10.4 mph - N/A   Clear
10:56 PM 55.9 °F 51.1 °F 84% 30.12 in 10.0 mi NW 5.8 mph - N/A   Clear
11:56 PM 54.0 °F 51.1 °F 90% 30.13 in 10.0 mi West 4.6 mph - N/A   Overcast